Back to catalog

STARLINK-32887

AliveCommunicationsVLEO
NORAD 62964·PAYLOAD·🇺🇸 United States

Launched Feb 11, 2025 from Vandenberg Space Force Base

Loading…

Next Passes (next 24 hours)

TLE

FreshSource: CelesTrak SupGP

Epoch: Sep 14, 2026, 22:18 UTC

1 62964C 25029S   26257.92965278  .00042079  00000+0  12434-2 0  2579
2 62964  53.1581  67.8729 0001109  80.2637 141.6404 15.34364537    10

Track STARLINK-32887 in real time with AllMySat

Download on the App Store